Regional Weather Roundup
Issued by NWS Raleigh/Durham, NC

Home | Current Version | Previous Version | Text Only | Print | Product List | Glossary On
Versions: 1 2 3 4 5 6 7 8 9 10 11 12 13 14 15 16 17 18 19 20 21 22 23 24 25 26 27
000
ASUS42 KRAH 311010
RWRRAH
NORTH CAROLINA WEATHER ROUNDUP
NATIONAL WEATHER SERVICE RALEIGH NC
600 AM EDT SUN JUL 31 2016

NOTE: "FAIR" INDICATES FEW OR NO CLOUDS BELOW 12,000 FEET WITH NO
SIGNIFICANT WEATHER AND/OR OBSTRUCTIONS TO VISIBILITY.

NCZ001-053-055-056-065-067-311100-
WESTERN NORTH CAROLINA

CITY           SKY/WX    TMP DP  RH WIND       PRES   REMARKS
ASHEVILLE      CLOUDY    68  66  93 NW6       30.10R
JEFFERSON      PTCLDY    70  65  84 W7        30.12S
MORGANTON      FOG       68  68 100 CALM      30.07R VSB 1
HICKORY        CLEAR     70  70 100 S3        30.02R
RUTHERFORDTON    N/A     68  68 100 CALM      30.03R
MOUNT AIRY     CLEAR     71  69  93 CALM      30.04R
BOONE          PTCLDY    68  64  88 W5        30.14S
$$

NCZ021-022-025-041-071-084-088-311100-
CENTRAL NORTH CAROLINA

CITY           SKY/WX    TMP DP  RH WIND       PRES   REMARKS
CHARLOTTE      PTCLDY    73  69  87 S7        30.01S
GREENSBORO     MOCLDY    74  71  91 SW3       29.99R
WINSTON-SALEM  PTCLDY    74  70  87 NW3       30.01R
RALEIGH-DURHAM PTCLDY    75  72  90 SW8       29.99R
FORT BRAGG     PTCLDY    76  73  90 SW7       29.98R
FAYETTEVILLE   CLEAR     77  73  87 SW9       29.99R
BURLINGTON     CLEAR     74  71  91 CALM      29.99R
LAURINBURG     CLEAR     75  73  93 SW3       30.00R
$$

NCZ011-015-027-028-043-044-047-080-103-311100-
NORTHEASTERN NORTH CAROLINA

CITY           SKY/WX    TMP DP  RH WIND       PRES   REMARKS
ROCKY MT-WILSO CLEAR     74  74 100 S3        29.98R
GREENVILLE     CLEAR     75  73  94 CALM      30.00S
WASHINGTON     CLOUDY    76  74  92 SW3       29.99R
ELIZABETH CITY LGT RAIN  76  74  93 S6        29.99S
MANTEO         RAIN      78  77  98 W14       30.01R
CAPE HATTERAS  CLOUDY    79  79 100 SW10      30.01R
$$

NCZ078-087-090-091-093-098-101-311100-
SOUTHEASTERN NORTH CAROLINA

CITY           SKY/WX    TMP DP  RH WIND       PRES   REMARKS
LUMBERTON      CLEAR     76  73  91 SW5       29.99R
GOLDSBORO      PTCLDY    78  78 100 SW6       29.98R
KINSTON        CLEAR     78  73  86 SW7       30.00R
KENANSVILLE    NOT AVBL
NEW BERN       CLOUDY    77  73  87 S8        30.01R
CHERRY POINT   CLOUDY    80  76  87 SW6       30.02R
BEAUFORT       CLEAR     83  80  91 SW14      30.02R HX  95
JACKSONVILLE   CLOUDY    77  75  93 CALM      30.00R
WILMINGTON     PTCLDY    81  78  91 S6        30.01R
$$





USA.gov is the U.S. government's official web portal to all federal, state and local government web resources and services.